This is the latest recevied weather packets stored in our database for station/object N7NIP. If no packets are shown the sender has not sent any weather packets the latest 10 day(s).
| Time | Temp. | Humidity | Pressure | Rain* | Wind** | Luminosity | Snow |
|---|---|---|---|---|---|---|---|
| 1777564707 | 13.89° C | 79% | 1035.2 hPa | 0 mm | - | 354 W/m² | - |
| 1777564403 | 13.89° C | 80% | 1035.1 hPa | 0 mm | - | 373 W/m² | - |
| 1777564099 | 14.44° C | 76% | 1035.2 hPa | 0 mm | - | 326 W/m² | - |
| 1777563795 | 15° C | 81% | 1035.2 hPa | 0 mm | - | 254 W/m² | - |
| 1777563492 | 13.89° C | 78% | 1035.3 hPa | 0 mm | - | 257 W/m² | - |
| 1777563191 | 12.78° C | 92% | 1035.1 hPa | 0 mm | - | 247 W/m² | - |
| 1777562888 | 12.22° C | 99% | 1035.4 hPa | 0 mm | - | 232 W/m² | - |
| 1777562584 | 11.11° C | 99% | 1035.3 hPa | 0 mm | - | 226 W/m² | - |
| 1777562283 | 10.56° C | 99% | 1035.3 hPa | 0 mm | - | 205 W/m² | - |
| 1777561980 | 10° C | 99% | 1035.5 hPa | 0 mm | - | 177 W/m² | - |
| 1777561677 | 10° C | 99% | 1035.3 hPa | 0 mm | - | 126 W/m² | - |
| 1777561372 | 9.44° C | 99% | 1035.4 hPa | 0 mm | - | 126 W/m² | - |
| 1777561068 | 8.89° C | 99% | 1035.5 hPa | 0 mm | - | 124 W/m² | - |
| 1777560763 | 9.44° C | 99% | 1035.6 hPa | 0 mm | - | 95 W/m² | - |
| 1777560460 | 8.89° C | 99% | 1035.3 hPa | 0 mm | - | 71 W/m² | - |
| 1777560158 | 8.89° C | 99% | 1035.4 hPa | 0 mm | - | 68 W/m² | - |
| 1777559855 | 8.89° C | 99% | 1035.4 hPa | 0 mm | - | 67 W/m² | - |
| 1777559551 | 8.33° C | 99% | 1035.4 hPa | 0 mm | - | 66 W/m² | - |
| 1777559248 | 7.78° C | 99% | 1035.6 hPa | 0 mm | - | 65 W/m² | - |
| 1777558943 | 7.78° C | 99% | 1035.5 hPa | 0 mm | - | 62 W/m² | - |
| 1777558640 | 7.78° C | 99% | 1035.6 hPa | 0 mm | - | 60 W/m² | - |
| 1777558335 | 7.22° C | 99% | 1035.6 hPa | 0 mm | - | 57 W/m² | - |
| 1777558032 | 7.22° C | 99% | 1035.5 hPa | 0 mm | - | 55 W/m² | - |
| 1777557728 | 7.22° C | 99% | 1035.6 hPa | 0 mm | - | 53 W/m² | - |
| 1777557425 | 6.67° C | 99% | 1035.6 hPa | 0 mm | - | 50 W/m² | - |
* Rain latest hour (hover to see other rain measurements)
** Current wind speed in m/s (hover to see current wind gust speed)